sat.trackr.live / text

‹ back to catalog

STARLINK-5906

NORAD 55962 · 2023-037BA

PAYLOAD ACTIVE UNKNOWN

§ Identity

Operator
Country
US
Launch date
2023-03-17
Launch site
AFWTR
Launch vehicle
Mass (kg)
RCS (m²)

Purposes: comms

External: N2YO · Heavens-Above · Gunter

§ Orbital elements

Epoch: 2026-09-19T18:53:11.642784Z

Period
96.11 min
Inclination
69.9987°
Eccentricity
0.0002839
Mean motion
14.98329446 rev/d
Perigee alt
570.1 km
Apogee alt
574.0 km
Semi-major
6,950.2 km
B*
4.3918e-5
RAAN
135.2033°
Arg perigee
269.2847°
Mean anomaly
90.7987°
Rev number
19,354

§ Raw data

STARLINK-59061 55962U 23037BA  26262.78694031  .00000431  00000+0  43918-4 0  99942 55962  69.9987 135.2033 0002839 269.2847  90.7987 14.98329446193546

JSON: /api/v1/satellites/55962 · /tle

For live sub-satellite position, see the globe view (requires WebGL).

§ Visibility from observer

Set your observer location to see the next 7 days of passes ≥ 10°. The values pass through the URL so the page stays shareable.

No JS? Fill the form by hand. The geolocation button needs JavaScript.